Weather History for Cleveland, OH

Change the Weather History Date:

Sunday, December 9, 2012

  Actual Average Record
Temperature  
Mean Temperature 46 °F 34 °F  
Max Temperature 55 °F 40 °F 62 °F (1952)
Min Temperature 36 °F 28 °F -5 °F (1917)
Degree Days  
Heating Degree Days 19 31  
Month to date heating degree days 173 262  
Since 1 July heating degree days 1418 1357  
Cooling Degree Days 0 0  
Month to date cooling degree days 0 0  
Year to date cooling degree days 1096 817  
Moisture  
Dew Point 40 °F    
Average Humidity 83    
Maximum Humidity 93    
Minimum Humidity 73    
Precipitation  
Precipitation 0.09 in 0.11 in 0.69 in (1952)
Month to date precipitation 1.34 0.94  
Year to date precipitation 42.03 36.98  
Snow  
Snow 0.00 in 0.40 in - ()
Month to date snowfall 0.0 3.2  
Since 1 July snowfall 0.3 7.7  
Snow Depth 0.00 in    
Sea Level Pressure  
Sea Level Pressure 29.95 in    
Wind  
Wind Speed 11 mph (SE)    
Max Wind Speed 17 mph    
Max Gust Speed 22 mph    
Visibility 9 miles    
Events Rain    
T = Trace of Precipitation, MM = Missing Value Source: NWS Daily Summary

Daily Weather History Graph

Daily Weather History Graph

Search for Another Location

Airport:

Trip Planner

Search our weather history database for the weather conditions in past years. The results will help you decide how hot, cold, wet, or windy it might be!

Date:

Astronomy

Dec. 09, 2012 Rise Set
Actual Time 7:42 AM EST 4:57 PM EST
Civil Twilight 7:10 AM EST 5:28 PM EST
Nautical Twilight 6:36 AM EST 6:03 PM EST
Astronomical Twilight 6:02 AM EST 6:37 PM EST
Moon 3:11 AM EST (12/9) 2:05 PM EST (12/9)
Length of Visible Light 10h 17m
Length of Day
9h 15m
Waning Crescent, 19% of the Moon is Illuminated
Dec 9
Waning Crescent
Dec 13
New
Dec 20
First Quarter
Dec 28
Full
Jan 4
Last Quarter

Hourly Weather History & Observations

Time (EST) Temp. Windchill Dew Point Humidity Pressure Visibility Wind Dir Wind Speed Gust Speed Precip Events Conditions
12:51 AM 39.0 °F 32.8 °F 33.1 °F 79% 30.17 in 10.0 mi NE 9.2 mph - N/A   Overcast
1:51 AM 39.2 °F 31.6 °F 32.0 °F 75% 30.16 in 10.0 mi ENE 12.7 mph - N/A   Overcast
2:51 AM 37.9 °F 30.9 °F 30.9 °F 76% 30.19 in 10.0 mi ENE 10.4 mph - N/A   Overcast
3:51 AM 37.9 °F 29.6 °F 30.0 °F 73% 30.18 in 10.0 mi ENE 13.8 mph - N/A   Overcast
4:51 AM 37.0 °F 29.8 °F 30.0 °F 76% 30.19 in 10.0 mi East 10.4 mph - N/A   Overcast
5:51 AM 37.0 °F 29.3 °F 30.0 °F 76% 30.19 in 10.0 mi East 11.5 mph - N/A   Overcast
6:51 AM 36.0 °F 28.5 °F 30.0 °F 79% 30.18 in 10.0 mi East 10.4 mph - N/A   Overcast
7:51 AM 36.0 °F 29.0 °F 30.0 °F 79% 30.18 in 10.0 mi East 9.2 mph - N/A   Overcast
8:51 AM 36.0 °F 28.5 °F 30.9 °F 82% 30.14 in 10.0 mi East 10.4 mph - N/A   Overcast
9:51 AM 37.9 °F 30.0 °F 30.9 °F 76% 30.12 in 10.0 mi East 12.7 mph - N/A   Overcast
10:51 AM 39.9 °F 33.9 °F 33.1 °F 77% 30.10 in 10.0 mi ESE 9.2 mph - N/A   Overcast
11:06 AM 39.2 °F 34.2 °F 33.8 °F 81% 30.07 in 10.0 mi ESE 6.9 mph - N/A   Overcast
11:51 AM 41.0 °F 35.8 °F 33.1 °F 73% 30.05 in 10.0 mi ESE 8.1 mph - N/A   Overcast
12:51 PM 43.0 °F 39.5 °F 35.1 °F 74% 30.01 in 10.0 mi ESE 5.8 mph - N/A   Overcast
1:51 PM 43.0 °F 38.8 °F 36.0 °F 76% 29.97 in 10.0 mi ESE 6.9 mph - N/A   Overcast
2:25 PM 44.6 °F 41.4 °F 37.4 °F 76% 29.93 in 10.0 mi ESE 5.8 mph - 0.00 in   Overcast
2:51 PM 44.1 °F 39.0 °F 37.9 °F 79% 29.92 in 10.0 mi SE 9.2 mph - 0.00 in Rain Light Rain
3:38 PM 44.6 °F 39.2 °F 39.2 °F 81% 29.86 in 8.0 mi SE 10.4 mph - 0.01 in Rain Light Rain
3:51 PM 45.0 °F 39.3 °F 41.0 °F 86% 29.88 in 5.0 mi SSE 11.5 mph - 0.02 in Rain Light Rain
4:20 PM 44.6 °F 39.2 °F 41.0 °F 87% 29.85 in 10.0 mi SSE 10.4 mph 18.4 mph 0.00 in Rain Light Rain
4:51 PM 44.6 °F 37.8 °F 42.8 °F 93% 29.83 in 10.0 mi SSE 15.0 mph - N/A Rain Light Rain
5:51 PM 46.9 °F - 45.0 °F 93% 29.84 in 10.0 mi South 5.8 mph - 0.00 in   Overcast
6:20 PM 48.2 °F - 44.6 °F 87% 29.83 in 10.0 mi SSW 5.8 mph - N/A   Overcast
6:51 PM 48.9 °F - 46.9 °F 93% 29.83 in 10.0 mi South 10.4 mph 18.4 mph N/A   Overcast
7:51 PM 50.0 °F - 48.0 °F 93% 29.81 in 8.0 mi South 11.5 mph - N/A   Overcast
8:51 PM 52.0 °F - 48.9 °F 89% 29.78 in 9.0 mi South 10.4 mph - 0.00 in   Overcast
9:05 PM 51.8 °F - 50.0 °F 94% 29.76 in 8.0 mi South 11.5 mph - 0.00 in Rain Light Rain
9:11 PM 51.8 °F - 50.0 °F 94% 29.75 in 7.0 mi South 12.7 mph 19.6 mph 0.01 in Rain Light Rain
9:18 PM 53.6 °F - 50.0 °F 88% 29.75 in 7.0 mi South 15.0 mph 21.9 mph 0.02 in Rain Light Rain
9:25 PM 53.6 °F - 51.8 °F 94% 29.74 in 6.0 mi South 12.7 mph 21.9 mph 0.03 in Rain Light Rain
9:39 PM 53.6 °F - 51.8 °F 94% 29.74 in 10.0 mi South 12.7 mph - 0.04 in Rain Light Rain
9:51 PM 53.1 °F - 51.1 °F 93% 29.73 in 8.0 mi South 15.0 mph - 0.05 in Rain Light Rain
10:51 PM 54.0 °F - 52.0 °F 93% 29.71 in 10.0 mi South 11.5 mph - 0.01 in   Overcast
11:51 PM 55.4 °F - 53.6 °F 94% 29.67 in 10.0 mi South 11.5 mph - N/A Rain Light Rain